Location: Croisilles
(50.1998°N, 2.8793°E)
Time: 03:06:17
(UTC+00:00)

CZ-4C R/B - Pass Details

Date: 21 January 2021
Orbit: 617 x 1384 km, 63.4° (Epoch: 24 February)

Event Time Altitude Azimuth Distance (km) Brightness Sun altitude
Rises 17:40:53 0° 255° (WSW) 3,153 7.4 -12.1°
Reaches altitude 10° 17:43:14 10° 263° (W) 2,323 6.0 -12.4°
Maximum altitude 17:48:14 39° 332° (NNW) 1,303 3.3 -13.2°
Enters shadow 17:53:54 12° 39° (NE) 2,681 4.3 -14.1°
